#timestamp,LO_Frequency,Hit,StdDev 
1570107615.8,286046998.8,N
1570107635.6,286046998.9,N
1570107655.5,286046998.2,N
1570107675.3,286047001.0,N
1570107695.2,286047001.1,N
1570107715.9,286046999.8,N
1570107735.7,286047002.7,N
1570107755.6,286047001.9,N
1570107775.4,286047001.4,N
1570107795.2,286047004.3,N
1570107815.1,286047005.5,N
1570107816.0,286047005.5,N
1570107835.8,286047005.8,N
1570107855.7,286047002.9,N
1570107875.5,286047003.8,N
1570107895.3,286047003.1,N
1570107915.2,286047001.3,N
1570107935.0,286047002.9,N
1570107935.9,286047002.9,N
1570107955.8,286047003.2,N
1570107975.6,286047001.8,N
1570107995.4,286047000.2,N
1570108015.3,286047001.2,N
1570108035.1,286047000.8,N
1570108055.9,286047000.8,N
1570108075.7,286047000.3,N
1570108095.5,286047002.2,N
1570108115.4,286047004.0,N
1570108135.2,286047002.0,N
1570108155.0,286047001.6,N
1570108155.9,286047001.6,N
1570108175.8,286047000.1,N
1570108195.6,286047000.1,N
1570108215.5,286047002.0,N
1570108235.3,286047002.6,N
1570108255.4,286047002.2,N
1570108275.3,286047001.6,N
1570108295.1,286047002.2,N
1570108315.7,286047000.2,N
1570108335.5,286047000.0,N
1570108355.4,286047000.9,N
1570108375.2,286047000.4,N
1570108395.1,286047001.1,N
1570108396.0,286047001.1,N
1570108415.8,286046999.7,N
1570108435.6,286047002.7,N
1570108455.5,286046999.8,N
1570108475.3,286047002.3,N
1570108495.2,286047002.7,N
1570108515.9,286047002.6,N
1570108535.7,286047002.2,N
1570108555.6,286047001.5,N
1570108575.4,286047003.9,Y
1570108595.2,286047002.4,P
1570108615.1,286047002.8,P
1570108616.0,286047002.8,P
1570108635.8,286047000.4,N
1570108655.7,286047000.9,N
1570108675.5,286047000.7,N
1570108695.3,286046998.7,N
1570108715.2,286046996.6,N
1570108735.0,286046998.8,N
1570108735.9,286046998.8,N
1570108755.8,286046998.1,N
1570108775.6,286046998.9,N
1570108795.4,286046998.2,N
1570108815.3,286046998.3,N
1570108835.1,286046998.2,N
1570108855.8,286047001.0,N
1570108875.7,286047000.8,N
1570108895.5,286046999.7,N
1570108915.4,286047002.6,N
1570108935.2,286047002.6,N
1570108955.0,286047002.1,N
1570108955.9,286047002.1,N
1570108975.8,286047004.4,N
1570108995.6,286047001.8,N
1570109015.5,286047002.1,N
1570109035.3,286047003.1,N
1570109055.1,286047003.6,N
1570109075.9,286047006.0,N
1570109095.7,286047003.6,N
1570109115.5,286047003.1,N
1570109135.4,286047003.3,N
1570109155.2,286047003.0,N
1570109175.1,286047003.6,N
1570109176.0,286047003.6,N
1570109195.8,286047003.9,N
1570109215.6,286047001.9,N
1570109235.5,286047001.3,N
1570109255.3,286047002.4,N
1570109275.1,286047002.0,N
1570109295.9,286046999.7,N
1570109315.7,286047002.4,N
1570109335.6,286047002.1,N
1570109355.4,286047002.5,N
1570109375.2,286047002.1,N
1570109395.1,286047001.0,N
1570109396.0,286047001.0,N
1570109415.8,286047000.0,N
1570109435.7,286046999.9,N
1570109455.5,286047001.2,N
1570109475.3,286046998.7,N
1570109495.2,286046999.4,N
1570109515.0,286046999.4,N
1570109515.9,286046999.4,N
1570109535.7,286046998.6,N
1570109555.6,286046999.3,N
1570109575.4,286046998.1,N
1570109595.3,286046999.0,N
1570109615.1,286046997.2,N
1570109616.0,286046997.2,N
1570109635.8,286046997.4,N
1570109655.7,286046997.0,N
1570109675.5,286046996.7,N
1570109695.4,286046999.3,N
1570109715.2,286046998.9,N
1570109735.0,286046999.0,N
1570109735.9,286046999.0,N
1570109755.8,286046998.7,N
1570109775.6,286046998.3,N
1570109795.5,286046998.2,N
1570109815.3,286046998.7,N
1570109835.1,286046999.3,N
1570109855.9,286046996.8,N
1570109875.7,286046999.4,N
1570109895.5,286046998.7,N
1570109915.4,286046998.4,N
1570109935.2,286046999.5,N
1570109955.1,286046998.7,N
1570109956.0,286046998.7,N
1570109975.8,286046999.0,N
1570109995.6,286046998.6,N
1570110015.5,286046998.2,N
1570110035.3,286046996.8,Y
1570110055.2,286046999.4,P
1570110075.9,286046996.6,P
1570110095.7,286046997.2,N
1570110115.6,286046997.8,N
1570110135.4,286046997.2,N
1570110155.2,286046998.7,N
1570110175.1,286046998.9,N
1570110176.0,286046998.9,N
1570110195.8,286047000.6,N
1570110215.7,286046998.6,N
1570110235.5,286046998.5,N
1570110255.3,286046998.4,N
1570110275.2,286046999.3,N
1570110295.0,286046996.5,Y
1570110295.9,286046996.5,P
1570110315.8,286046998.8,N
1570110335.6,286047001.1,N
1570110355.4,286047001.1,N
1570110375.3,286047001.1,N
1570110395.1,286046998.8,N
1570110415.9,286046998.6,N
1570110435.7,286046998.6,N
1570110455.5,286046998.8,N
1570110475.4,286046999.6,N
1570110495.2,286046999.0,N
1570110515.0,286046996.9,N
1570110515.9,286046996.9,N
1570110535.8,286046999.3,N
1570110555.6,286046998.7,N
1570110575.5,286047001.2,N
1570110595.3,286047000.2,N
1570110615.1,286047000.0,N
1570110635.9,286046999.9,N
1570110655.7,286047000.2,N
1570110675.6,286047000.5,N
1570110695.4,286047000.7,N
1570110715.2,286047000.5,N
1570110735.1,286047002.2,N
1570110736.0,286047002.2,N
1570110755.8,286047002.3,N
1570110775.6,286047001.3,N
1570110795.5,286047003.6,N
1570110815.3,286047002.2,N
1570110835.2,286047000.0,N
1570110855.9,286047000.4,N
1570110875.7,286047002.3,N
1570110895.6,286047002.8,N
1570110915.4,286047001.6,N
1570110935.2,286047001.7,N
1570110955.1,286047001.8,N
1570110956.0,286047001.8,N
1570110975.8,286047003.8,N
1570110995.7,286047006.0,Y
1570111015.5,286047002.0,P
1570111035.3,286047000.1,N
1570111055.2,286046999.7,N
1570111075.0,286047002.8,Y
1570111075.9,286047002.8,P
1570111095.8,286047000.2,N
1570111115.6,286046999.9,N
1570111135.4,286047001.0,N
1570111155.3,286046998.8,N
1570111175.1,286047001.2,N
1570111195.9,286047002.7,N
